FENGYUN 1C DEB

Satellite information

Favourite Embed

Satellite Type and Status

DEBRISIN ORBIT

Key statistics

Satellite FENGYUN 1C DEB at a glance.

Uptime

9615

Days in orbit

Revolutions

≈ 14.3

Per day

Orbit

SSO

Sun Synchronous Orbit

Inclination

98.5

Latest

Satellite identification and parameters

Extended collection of information and parameters for FENGYUN 1C DEB.

Object identification

Identified? True

Debris? True

Object name: FENGYUN 1C DEB

International designator: 1999-025EP

Object number (NORAD): 29845

Object ID (CCSDS): 29845

Country: PEOPLES REPUBLIC OF CHINA (PRC)

Current information (Y/N): Y

RCS size: SMALL

Orbital parameters

Period: 100.98 minutes

Inclination: 98.521 deg

SMA: 7183.196 km

Apoapsis: 861.754 km

Periapsis: 748.367 km

RAAN: 249.2862 deg

Eccentricy: 0.00789254

Argument of periapsis: 66.3574 deg

Mean anomaly: 309.1749 deg

Mean motion: 14.26022011 rev/day

Mean motion (dot): 0.00002918 rev/day2

B* drag term: 0.0011995418 1/REarth

Two-line elements (TLE)

Creation date: Sept. 3, 2025, 10:15 a.m.

Reference frame: TEME

Reference center: EARTH

Epoch: Sept. 3, 2025, 5:56 a.m. UTC

TLE line 0: 0 FENGYUN 1C DEB

TLE line 1: 1 29845U 99025EP 25246.24757828 .00002918 00000-0 11995-2 0 9992

TLE line 2: 2 29845 98.5210 249.2862 0078925 66.3574 309.1749 14.26022011966777

Live tracking on map

Real-time ground track for satellite FENGYUN 1C DEB.

In-orbit conjunctions

A list of the most updated potential collisions computed for object FENGYUN 1C DEB.

Target Orbit TCA Probability of collision Miss distance Type
PICOSAT 9 LEO 2024-10-25 08:49:17 0.0001869833 866.0 (m) PAYLOAD

Associated space launch

Chinese polar orbiting meteorological satellite

FENGYUN 1C DEB was lifted into orbit during the mission ‘Long March 4B | Feng Yun 1C’, on board a Long March 4B space rocket.

The launch took place on May 10, 1999, 1:33 a.m. from Launch Complex 7.

For more information about the launch, click the button.

Launch to space Long March 4B | Feng Yun 1C
Long March 4B | Feng Yun 1C

Agency: N/A

Status: Launch Successful

Launch date: May 10, 1999, 1:33 a.m. UTC

Rocket: Long March 4B

Launch pad: Launch Complex 7

Location: Taiyuan Satellite Launch Center, People's Republic of China

...

Latest news about this satellite

There are no fresh news available about this satellite. Check back as we update our databases every day.


Newsletter sign-up

Weekly statistics, charts and insights to help you stay on top of the space industry.